QPF
0.00 0.00 0.00 0.00 0.00 0.00 0.00 0.02 0.05 0.05 0.06 0.03 0.00 0.00 0.00 0.00 0.00 0.00 0.00 0.00 0.00 0.00 0.00 0.00 0.00 0.00 0.00 0.00 0.00 0.00 0.00 0.00 0.00 0.00 0.01 0.01 0.01 0.01 0.01 0.01 0.02 0.04 0.06 0.07
0.00 0.00 0.00 0.00 0.00 0.00 0.00 0.00 0.01 0.01 0.01 0.00 0.00 0.00 0.00 0.00 0.00 0.00 0.00 0.00 0.00 0.00 0.00 0.00 0.00 0.00 0.00 0.00 0.00 0.00 0.00 0.00 0.00 0.00 0.00 0.01 0.01 0.01 0.01 0.01 0.02 0.03 0.05 0.07
0.00 0.00 0.01 0.05 0.02 0.00 0.00 0.00 0.00 0.00 0.00 0.00 0.00 0.00 0.00 0.00 0.00 0.00 0.00 0.00 0.00 0.00 0.00 0.00 0.00 0.00 0.00 0.00 0.00 0.00 0.00 0.00 0.00 0.00 0.00 0.00 0.01 0.01 0.01 0.01 0.02 0.03 0.05 0.07
0.00 0.00 0.04 0.05 0.01 0.00 0.00 0.00 0.00 0.00 0.00 0.00 0.00 0.00 0.00 0.00 0.00 0.00 0.00 0.00 0.00 0.00 0.00 0.00 0.00 0.00 0.00 0.00 0.00 0.00 0.00 0.00 0.00 0.00 0.00 0.00 0.01 0.01 0.01 0.01 0.02 0.02 0.03 0.05
0.00 0.00 0.03 0.01 0.00 0.00 0.00 0.00 0.00 0.00 0.00 0.00 0.00 0.00 0.00 0.00 0.00 0.00 0.00 0.00 0.00 0.00 0.00 0.00 0.00 0.00 0.00 0.00 0.00 0.00 0.00 0.00 0.00 0.00 0.00 0.00 0.01 0.02 0.03 0.04 0.03 0.02 0.02 0.05
0.00 0.00 0.02 0.02 0.00 0.00 0.00 0.00 0.00 0.00 0.00 0.00 0.00 0.00 0.00 0.00 0.00 0.00 0.00 0.00 0.00 0.00 0.00 0.00 0.00 0.00 0.00 0.00 0.01 0.01 0.01 0.00 0.01 0.01 0.01 0.01 0.02 0.03 0.04 0.05 0.05 0.03 0.02 0.04
0.00 0.00 0.01 0.00 0.00 0.00 0.00 0.00 0.00 0.00 0.00 0.00 0.00 0.00 0.00 0.00 0.00 0.00 0.00 0.00 0.00 0.00 0.00 0.00 0.00 0.01 0.02 0.02 0.02 0.01 0.01 0.02 0.02 0.02 0.03 0.02 0.03 0.04 0.05 0.05 0.06 0.06 0.05 0.06
0.00 0.00 0.01 0.00 0.00 0.00 0.00 0.00 0.00 0.00 0.00 0.00 0.00 0.00 0.00 0.00 0.00 0.00 0.00 0.00 0.00 0.00 0.00 0.00 0.01 0.03 0.04 0.04 0.03 0.03 0.04 0.04 0.04 0.05 0.03 0.02 0.05 0.07 0.08 0.09 0.09 0.07 0.07 0.06
0.00 0.00 0.00 0.00 0.00 0.00 0.00 0.00 0.00 0.00 0.00 0.00 0.00 0.00 0.00 0.00 0.00 0.00 0.00 0.00 0.00 0.01 0.01 0.01 0.02 0.04 0.05 0.05 0.05 0.06 0.06 0.06 0.06 0.06 0.07 0.06 0.06 0.07 0.09 0.09 0.08 0.08 0.09 0.10
0.00 0.00 0.00 0.00 0.00 0.00 0.00 0.00 0.00 0.00 0.00 0.00 0.00 0.00 0.00 0.00 0.00 0.00 0.00 0.00 0.01 0.02 0.03 0.03 0.03 0.04 0.06 0.06 0.07 0.09 0.09 0.08 0.08 0.08 0.08 0.08 0.09 0.08 0.07 0.07 0.09 0.11 0.13 0.14
0.00 0.00 0.00 0.00 0.00 0.00 0.00 0.00 0.00 0.00 0.00 0.00 0.00 0.00 0.00 0.00 0.00 0.00 0.01 0.01 0.02 0.04 0.06 0.05 0.05 0.05 0.05 0.07 0.10 0.11 0.11 0.10 0.09 0.09 0.09 0.09 0.10 0.09 0.07 0.08 0.08 0.10 0.12 0.14
0.00 0.00 0.00 0.00 0.00 0.00 0.00 0.00 0.00 0.00 0.00 0.00 0.00 0.00 0.00 0.00 0.00 0.01 0.02 0.04 0.07 0.08 0.09 0.09 0.08 0.08 0.07 0.08 0.12 0.15 0.14 0.12 0.12 0.12 0.11 0.11 0.10 0.10 0.06 0.03 0.02 0.01 0.03 0.05
0.00 0.00 0.00 0.00 0.00 0.00 0.00 0.00 0.00 0.00 0.00 0.00 0.00 0.00 0.00 0.00 0.00 0.02 0.06 0.11 0.13 0.14 0.14 0.13 0.12 0.10 0.09 0.12 0.15 0.17 0.16 0.15 0.15 0.14 0.13 0.12 0.12 0.13 0.13 0.08 0.02 0.01 0.01 0.03
0.00 0.00 0.00 0.00 0.00 0.00 0.00 0.00 0.00 0.00 0.00 0.00 0.00 0.00 0.00 0.01 0.02 0.06 0.12 0.16 0.16 0.17 0.16 0.15 0.15 0.14 0.15 0.16 0.17 0.16 0.16 0.15 0.13 0.13 0.13 0.13 0.13 0.12 0.14 0.15 0.12 0.07 0.03 0.03
0.00 0.00 0.00 0.00 0.00 0.00 0.00 0.00 0.00 0.00 0.00 0.00 0.00 0.00 0.00 0.02 0.06 0.10 0.15 0.18 0.19 0.18 0.16 0.16 0.18 0.18 0.17 0.17 0.17 0.17 0.18 0.18 0.16 0.15 0.14 0.12 0.11 0.11 0.10 0.13 0.18 0.17 0.10 0.05
0.00 0.00 0.00 0.00 0.00 0.00 0.00 0.00 0.00 0.00 0.00 0.00 0.00 0.00 0.01 0.03 0.06 0.09 0.13 0.18 0.22 0.21 0.18 0.17 0.18 0.17 0.17 0.17 0.18 0.18 0.17 0.09 0.09 0.12 0.11 0.10 0.09 0.09 0.09 0.12 0.17 0.16 0.11 0.06
0.00 0.00 0.00 0.00 0.00 0.00 0.00 0.00 0.00 0.00 0.00 0.00 0.00 0.00 0.02 0.04 0.07 0.11 0.14 0.14 0.15 0.17 0.17 0.17 0.15 0.14 0.15 0.15 0.16 0.17 0.16 0.10 0.02 0.04 0.09 0.10 0.10 0.10 0.12 0.14 0.17 0.14 0.09 0.06
0.00 0.00 0.00 0.00 0.00 0.00 0.00 0.00 0.00 0.00 0.00 0.00 0.00 0.00 0.02 0.05 0.10 0.16 0.16 0.14 0.12 0.12 0.13 0.14 0.10 0.10 0.12 0.09 0.11 0.15 0.15 0.13 0.09 0.09 0.11 0.11 0.12 0.13 0.14 0.13 0.13 0.10 0.07 0.05
0.00 0.00 0.00 0.00 0.00 0.00 0.00 0.00 0.00 0.00 0.00 0.00 0.00 0.01 0.02 0.04 0.09 0.13 0.13 0.13 0.12 0.11 0.11 0.10 0.07 0.09 0.08 0.05 0.06 0.11 0.10 0.08 0.08 0.10 0.09 0.06 0.06 0.10 0.10 0.09 0.08 0.07 0.05 0.03
0.00 0.00 0.00 0.00 0.00 0.00 0.00 0.00 0.00 0.00 0.00 0.00 0.00 0.01 0.02 0.03 0.06 0.09 0.10 0.11 0.10 0.10 0.10 0.07 0.07 0.07 0.05 0.03 0.03 0.05 0.04 0.03 0.04 0.05 0.05 0.05 0.06 0.06 0.06 0.06 0.05 0.05 0.04 0.02
0.00 0.00 0.00 0.00 0.00 0.00 0.00 0.00 0.00 0.00 0.00 0.00 0.00 0.01 0.02 0.03 0.04 0.07 0.11 0.13 0.08 0.05 0.05 0.05 0.06 0.04 0.03 0.02 0.03 0.04 0.04 0.04 0.05 0.05 0.06 0.06 0.06 0.05 0.04 0.03 0.03 0.03 0.02 0.02
0.00 0.00 0.00 0.00 0.00 0.00 0.00 0.00 0.00 0.00 0.00 0.00 0.00 0.01 0.02 0.03 0.04 0.05 0.07 0.11 0.10 0.08 0.05 0.06 0.04 0.01 0.01 0.02 0.05 0.06 0.06 0.06 0.08 0.09 0.09 0.07 0.06 0.05 0.04 0.03 0.02 0.02 0.01 0.01
0.00 0.00 0.00 0.00 0.00 0.00 0.00 0.00 0.00 0.00 0.00 0.00 0.00 0.01 0.02 0.03 0.04 0.07 0.06 0.06 0.07 0.09 0.07 0.05 0.03 0.01 0.01 0.03 0.05 0.06 0.06 0.07 0.08 0.09 0.08 0.07 0.06 0.05 0.05 0.03 0.03 0.02 0.02 0.02
0.00 0.00 0.00 0.00 0.00 0.00 0.00 0.00 0.00 0.00 0.00 0.00 0.00 0.00 0.01 0.03 0.03 0.04 0.04 0.05 0.05 0.05 0.06 0.05 0.03 0.03 0.03 0.04 0.05 0.05 0.06 0.06 0.07 0.08 0.07 0.07 0.08 0.07 0.07 0.06 0.05 0.05 0.04 0.03
0.00 0.00 0.00 0.00 0.00 0.00 0.00 0.00 0.00 0.00 0.00 0.00 0.00 0.00 0.00 0.01 0.03 0.03 0.02 0.02 0.02 0.03 0.04 0.04 0.04 0.05 0.06 0.06 0.06 0.06 0.05 0.04 0.05 0.07 0.08 0.09 0.08 0.08 0.08 0.06 0.05 0.04 0.04 0.04
0.00 0.00 0.00 0.00 0.00 0.00 0.00 0.00 0.00 0.00 0.00 0.00 0.00 0.00 0.00 0.00 0.01 0.01 0.01 0.01 0.01 0.01 0.02 0.03 0.04 0.05 0.06 0.07 0.07 0.07 0.08 0.08 0.09 0.10 0.09 0.08 0.07 0.07 0.07 0.06 0.05 0.04 0.04 0.04
0.00 0.00 0.00 0.00 0.00 0.00 0.00 0.00 0.00 0.00 0.00 0.00 0.00 0.00 0.00 0.00 0.00 0.00 0.01 0.01 0.01 0.01 0.01 0.01 0.02 0.03 0.04 0.05 0.07 0.07 0.07 0.08 0.09 0.08 0.07 0.05 0.04 0.03 0.03 0.02 0.02 0.02 0.02 0.02
MSLP
1010.02 1009.82 1009.67 1009.60 1009.67 1009.87 1010.20 1010.62 1011.09 1011.54 1011.93 1012.21 1012.36 1012.38 1012.27 1012.06 1011.79 1011.46 1011.12 1010.79 1010.47 1010.18 1009.92 1009.68 1009.47 1009.29 1009.13 1008.98 1008.85 1008.73 1008.62 1008.51 1008.39 1008.27 1008.15 1008.02 1007.88 1007.75 1007.61 1007.46 1007.31 1007.15 1006.98 1006.79
1010.69 1010.56 1010.43 1010.35 1010.35 1010.45 1010.66 1010.95 1011.29 1011.64 1011.95 1012.17 1012.28 1012.28 1012.15 1011.91 1011.60 1011.23 1010.83 1010.44 1010.07 1009.73 1009.43 1009.16 1008.93 1008.71 1008.52 1008.33 1008.15 1007.97 1007.79 1007.61 1007.44 1007.29 1007.16 1007.05 1006.96 1006.89 1006.82 1006.76 1006.68 1006.59 1006.46 1006.32
1011.32 1011.29 1011.22 1011.16 1011.13 1011.17 1011.28 1011.44 1011.65 1011.86 1012.03 1012.14 1012.15 1012.05 1011.84 1011.53 1011.14 1010.70 1010.25 1009.80 1009.38 1009.00 1008.68 1008.40 1008.16 1007.94 1007.73 1007.53 1007.32 1007.10 1006.87 1006.65 1006.45 1006.27 1006.13 1006.03 1005.98 1005.95 1005.95 1005.95 1005.93 1005.89 1005.81 1005.70
1011.89 1011.97 1011.99 1011.97 1011.95 1011.95 1011.97 1012.02 1012.09 1012.14 1012.16 1012.11 1011.98 1011.75 1011.42 1011.00 1010.52 1010.00 1009.47 1008.97 1008.52 1008.12 1007.79 1007.52 1007.29 1007.09 1006.90 1006.70 1006.48 1006.24 1005.99 1005.74 1005.51 1005.31 1005.16 1005.06 1005.02 1005.02 1005.05 1005.09 1005.11 1005.10 1005.04 1004.95
1012.38 1012.56 1012.67 1012.72 1012.72 1012.69 1012.65 1012.60 1012.53 1012.43 1012.28 1012.07 1011.78 1011.41 1010.95 1010.42 1009.85 1009.26 1008.68 1008.14 1007.66 1007.26 1006.94 1006.68 1006.48 1006.30 1006.13 1005.95 1005.74 1005.50 1005.24 1004.97 1004.72 1004.49 1004.32 1004.21 1004.16 1004.16 1004.19 1004.23 1004.26 1004.26 1004.21 1004.12
1012.80 1013.06 1013.24 1013.33 1013.36 1013.31 1013.21 1013.07 1012.88 1012.65 1012.35 1012.00 1011.57 1011.08 1010.51 1009.90 1009.26 1008.62 1008.01 1007.45 1006.96 1006.57 1006.25 1006.01 1005.83 1005.68 1005.53 1005.36 1005.16 1004.92 1004.65 1004.37 1004.08 1003.83 1003.63 1003.48 1003.40 1003.38 1003.39 1003.41 1003.43 1003.42 1003.36 1003.27
1013.15 1013.44 1013.66 1013.78 1013.80 1013.73 1013.59 1013.36 1013.08 1012.73 1012.33 1011.86 1011.34 1010.76 1010.14 1009.49 1008.82 1008.16 1007.54 1006.98 1006.50 1006.10 1005.79 1005.56 1005.38 1005.23 1005.08 1004.91 1004.70 1004.45 1004.17 1003.86 1003.56 1003.27 1003.03 1002.85 1002.73 1002.66 1002.64 1002.64 1002.63 1002.61 1002.55 1002.47
1013.42 1013.71 1013.92 1014.03 1014.03 1013.93 1013.72 1013.43 1013.07 1012.64 1012.16 1011.64 1011.07 1010.47 1009.83 1009.18 1008.53 1007.89 1007.28 1006.73 1006.25 1005.85 1005.53 1005.27 1005.06 1004.88 1004.70 1004.50 1004.27 1004.00 1003.69 1003.36 1003.03 1002.71 1002.44 1002.22 1002.06 1001.96 1001.91 1001.88 1001.87 1001.85 1001.80 1001.73
1013.61 1013.86 1014.03 1014.10 1014.06 1013.90 1013.63 1013.28 1012.85 1012.37 1011.86 1011.31 1010.74 1010.16 1009.56 1008.95 1008.35 1007.75 1007.17 1006.64 1006.15 1005.72 1005.35 1005.03 1004.76 1004.51 1004.27 1004.01 1003.73 1003.42 1003.09 1002.73 1002.37 1002.04 1001.74 1001.50 1001.32 1001.21 1001.14 1001.12 1001.12 1001.12 1001.11 1001.09
1013.72 1013.92 1014.03 1014.03 1013.91 1013.68 1013.35 1012.94 1012.46 1011.96 1011.43 1010.90 1010.37 1009.84 1009.31 1008.77 1008.22 1007.68 1007.13 1006.59 1006.08 1005.60 1005.15 1004.74 1004.36 1004.01 1003.68 1003.34 1002.99 1002.64 1002.26 1001.89 1001.52 1001.18 1000.88 1000.64 1000.46 1000.35 1000.31 1000.31 1000.35 1000.40 1000.46 1000.51
1013.76 1013.89 1013.93 1013.85 1013.66 1013.35 1012.95 1012.49 1011.98 1011.46 1010.95 1010.45 1009.98 1009.51 1009.06 1008.59 1008.11 1007.60 1007.07 1006.52 1005.95 1005.38 1004.82 1004.29 1003.79 1003.31 1002.86 1002.43 1002.01 1001.60 1001.20 1000.81 1000.44 1000.11 999.83 999.62 999.47 999.40 999.39 999.45 999.56 999.69 999.84 999.99
1013.74 1013.82 1013.79 1013.64 1013.37 1013.00 1012.54 1012.04 1011.51 1010.98 1010.49 1010.04 1009.62 1009.23 1008.84 1008.43 1008.00 1007.51 1006.96 1006.36 1005.71 1005.04 1004.35 1003.68 1003.02 1002.41 1001.84 1001.31 1000.82 1000.37 999.95 999.56 999.22 998.92 998.68 998.51 998.41 998.40 998.46 998.59 998.78 999.01 999.26 999.52
1013.68 1013.72 1013.64 1013.44 1013.12 1012.70 1012.20 1011.67 1011.13 1010.61 1010.15 1009.73 1009.36 1009.02 1008.68 1008.32 1007.89 1007.40 1006.81 1006.14 1005.39 1004.60 1003.78 1002.96 1002.17 1001.42 1000.74 1000.13 999.58 999.10 998.68 998.31 998.00 997.75 997.56 997.44 997.41 997.46 997.59 997.79 998.07 998.39 998.74 999.11
1013.58 1013.61 1013.51 1013.28 1012.94 1012.49 1011.98 1011.44 1010.91 1010.41 1009.97 1009.59 1009.25 1008.95 1008.63 1008.27 1007.84 1007.31 1006.66 1005.91 1005.06 1004.14 1003.19 1002.25 1001.33 1000.49 999.72 999.05 998.47 997.98 997.57 997.23 996.96 996.76 996.63 996.57 996.59 996.70 996.89 997.17 997.51 997.91 998.35 998.80
1013.46 1013.49 1013.40 1013.18 1012.83 1012.39 1011.89 1011.37 1010.86 1010.39 1009.97 1009.62 1009.30 1009.01 1008.69 1008.32 1007.85 1007.27 1006.56 1005.72 1004.77 1003.75 1002.70 1001.66 1000.66 999.74 998.92 998.22 997.63 997.16 996.78 996.48 996.26 996.11 996.02 996.01 996.08 996.23 996.46 996.79 997.18 997.64 998.13 998.63
1013.32 1013.37 1013.31 1013.11 1012.79 1012.38 1011.91 1011.42 1010.94 1010.51 1010.12 1009.78 1009.48 1009.18 1008.85 1008.44 1007.93 1007.29 1006.51 1005.60 1004.58 1003.49 1002.37 1001.27 1000.22 999.28 998.45 997.75 997.19 996.74 996.40 996.15 995.97 995.86 995.81 995.83 995.93 996.10 996.36 996.70 997.12 997.60 998.12 998.65
1013.16 1013.24 1013.20 1013.04 1012.77 1012.40 1011.98 1011.54 1011.10 1010.70 1010.34 1010.02 1009.72 1009.40 1009.04 1008.60 1008.04 1007.35 1006.52 1005.55 1004.49 1003.36 1002.21 1001.09 1000.05 999.12 998.31 997.65 997.13 996.72 996.43 996.22 996.08 996.00 995.98 996.01 996.12 996.29 996.55 996.88 997.30 997.79 998.31 998.86
1012.97 1013.08 1013.08 1012.96 1012.73 1012.41 1012.04 1011.65 1011.26 1010.89 1010.55 1010.24 1009.93 1009.60 1009.21 1008.72 1008.13 1007.39 1006.53 1005.54 1004.46 1003.32 1002.19 1001.10 1000.09 999.20 998.45 997.84 997.37 997.02 996.77 996.60 996.49 996.43 996.42 996.45 996.55 996.71 996.95 997.27 997.67 998.14 998.65 999.19
1012.79 1012.91 1012.92 1012.83 1012.64 1012.37 1012.04 1011.69 1011.34 1011.00 1010.68 1010.37 1010.05 1009.70 1009.28 1008.77 1008.14 1007.38 1006.50 1005.51 1004.44 1003.34 1002.24 1001.20 1000.25 999.42 998.73 998.19 997.77 997.47 997.26 997.12 997.03 996.98 996.97 996.99 997.07 997.21 997.43 997.72 998.10 998.55 999.04 999.56
1012.60 1012.72 1012.74 1012.66 1012.50 1012.25 1011.96 1011.64 1011.32 1011.00 1010.68 1010.37 1010.05 1009.68 1009.24 1008.70 1008.06 1007.29 1006.41 1005.44 1004.40 1003.34 1002.30 1001.32 1000.44 999.67 999.04 998.55 998.18 997.92 997.74 997.61 997.53 997.48 997.45 997.47 997.52 997.64 997.83 998.11 998.46 998.88 999.36 999.87
1012.42 1012.53 1012.55 1012.47 1012.31 1012.08 1011.81 1011.51 1011.19 1010.89 1010.58 1010.27 1009.93 1009.55 1009.10 1008.56 1007.91 1007.15 1006.29 1005.34 1004.34 1003.32 1002.33 1001.41 1000.58 999.87 999.28 998.82 998.48 998.23 998.06 997.93 997.85 997.78 997.75 997.74 997.79 997.89 998.06 998.31 998.65 999.05 999.51 1000.00
1012.26 1012.36 1012.36 1012.27 1012.11 1011.88 1011.61 1011.31 1011.01 1010.71 1010.41 1010.10 1009.77 1009.39 1008.93 1008.40 1007.75 1007.01 1006.17 1005.25 1004.29 1003.31 1002.36 1001.47 1000.68 999.99 999.42 998.97 998.63 998.37 998.18 998.04 997.93 997.86 997.80 997.79 997.81 997.90 998.06 998.30 998.62 999.01 999.45 999.93
1012.12 1012.20 1012.18 1012.08 1011.90 1011.66 1011.39 1011.10 1010.81 1010.52 1010.23 1009.93 1009.61 1009.24 1008.81 1008.29 1007.67 1006.95 1006.13 1005.25 1004.31 1003.36 1002.43 1001.56 1000.77 1000.08 999.50 999.02 998.65 998.36 998.14 997.97 997.83 997.73 997.66 997.63 997.65 997.72 997.87 998.10 998.40 998.77 999.20 999.67
1011.98 1012.04 1012.01 1011.89 1011.70 1011.46 1011.19 1010.90 1010.62 1010.35 1010.09 1009.82 1009.53 1009.19 1008.79 1008.30 1007.72 1007.03 1006.25 1005.40 1004.48 1003.55 1002.63 1001.75 1000.94 1000.22 999.60 999.08 998.66 998.32 998.05 997.83 997.66 997.53 997.44 997.39 997.40 997.47 997.60 997.82 998.10 998.46 998.86 999.30
1011.81 1011.87 1011.83 1011.70 1011.50 1011.26 1011.00 1010.74 1010.48 1010.24 1010.02 1009.80 1009.55 1009.27 1008.92 1008.48 1007.95 1007.31 1006.57 1005.75 1004.86 1003.94 1003.01 1002.12 1001.28 1000.51 999.84 999.26 998.77 998.37 998.04 997.77 997.56 997.40 997.29 997.23 997.22 997.28 997.40 997.60 997.86 998.19 998.56 998.97
1011.59 1011.65 1011.61 1011.49 1011.30 1011.07 1010.83 1010.60 1010.38 1010.19 1010.03 1009.86 1009.69 1009.47 1009.19 1008.82 1008.35 1007.77 1007.09 1006.31 1005.45 1004.55 1003.62 1002.71 1001.85 1001.04 1000.31 999.67 999.12 998.66 998.27 997.96 997.71 997.52 997.38 997.31 997.29 997.33 997.44 997.61 997.84 998.13 998.47 998.83
1011.30 1011.37 1011.35 1011.24 1011.07 1010.87 1010.66 1010.48 1010.32 1010.19 1010.09 1010.00 1009.90 1009.77 1009.57 1009.28 1008.89 1008.39 1007.77 1007.05 1006.24 1005.37 1004.47 1003.56 1002.68 1001.85 1001.08 1000.40 999.80 999.29 998.86 998.51 998.22 998.01 997.85 997.76 997.72 997.74 997.83 997.97 998.17 998.41 998.70 999.02
Thickness
5760 5771 5773 5767 5762 5754 5738 5725 5709 5704 5698 5693 5688 5680 5672 5667 5661 5653 5646 5640 5635 5627 5619 5611 5604 5599 5594 5591 5587 5584 5582 5581 5580 5580 5580 5580 5582 5585 5588 5592 5597 5603 5610 5618
5752 5766 5768 5757 5746 5738 5727 5717 5707 5699 5694 5696 5685 5674 5663 5655 5646 5636 5630 5624 5615 5605 5597 5590 5584 5579 5576 5573 5571 5569 5568 5568 5568 5568 5568 5567 5568 5569 5572 5576 5579 5585 5591 5599
5737 5757 5754 5723 5719 5714 5708 5706 5695 5683 5684 5683 5668 5656 5648 5640 5630 5622 5614 5603 5593 5585 5579 5574 5570 5568 5566 5564 5563 5561 5560 5560 5560 5559 5560 5560 5560 5561 5561 5562 5565 5568 5573 5580
5736 5739 5709 5706 5721 5711 5699 5697 5693 5685 5673 5662 5653 5646 5637 5628 5617 5604 5593 5585 5579 5573 5569 5566 5564 5562 5560 5557 5555 5553 5552 5552 5551 5551 5552 5552 5553 5554 5554 5553 5553 5554 5557 5563
5726 5718 5712 5705 5706 5697 5684 5680 5677 5663 5655 5648 5641 5631 5625 5616 5600 5587 5580 5575 5571 5567 5564 5561 5558 5556 5553 5550 5547 5544 5543 5542 5541 5541 5542 5543 5544 5545 5545 5545 5545 5545 5546 5550
5720 5702 5693 5690 5698 5698 5682 5671 5665 5653 5641 5633 5623 5608 5606 5599 5588 5581 5574 5569 5565 5563 5560 5556 5553 5549 5544 5541 5538 5535 5533 5533 5532 5531 5532 5533 5535 5536 5537 5537 5538 5538 5540 5543
5709 5697 5697 5693 5695 5686 5656 5650 5654 5645 5633 5619 5605 5593 5591 5588 5582 5575 5571 5567 5563 5559 5554 5549 5544 5539 5534 5530 5527 5525 5523 5522 5521 5521 5521 5523 5525 5527 5528 5529 5531 5532 5534 5536
5697 5685 5679 5691 5682 5661 5650 5651 5642 5631 5620 5609 5600 5592 5584 5578 5574 5571 5567 5563 5558 5551 5546 5540 5533 5526 5522 5517 5515 5512 5510 5509 5509 5510 5511 5516 5517 5520 5521 5522 5524 5526 5528 5531
5689 5683 5690 5686 5673 5665 5655 5641 5632 5622 5613 5602 5592 5585 5580 5575 5571 5567 5561 5555 5548 5539 5532 5526 5518 5510 5505 5503 5500 5498 5497 5498 5499 5500 5502 5505 5508 5511 5513 5516 5518 5522 5525 5527
5689 5690 5685 5676 5668 5659 5648 5636 5627 5616 5606 5595 5586 5580 5575 5571 5567 5560 5553 5544 5534 5524 5517 5511 5504 5497 5492 5490 5487 5486 5486 5488 5489 5492 5495 5498 5501 5505 5508 5512 5515 5519 5521 5523
5683 5681 5674 5669 5658 5649 5642 5632 5621 5611 5599 5589 5581 5575 5571 5566 5559 5551 5541 5530 5519 5508 5501 5496 5492 5488 5484 5481 5479 5478 5479 5480 5482 5485 5488 5492 5496 5500 5504 5508 5511 5514 5517 5520
5669 5668 5659 5654 5650 5644 5634 5624 5615 5605 5596 5586 5577 5571 5566 5559 5550 5539 5528 5517 5507 5499 5493 5489 5485 5483 5481 5478 5476 5475 5475 5476 5477 5480 5484 5488 5492 5497 5501 5504 5507 5509 5512 5515
5675 5670 5660 5653 5647 5638 5628 5620 5610 5600 5590 5582 5575 5568 5560 5551 5541 5530 5519 5510 5501 5495 5490 5487 5484 5482 5481 5479 5476 5475 5474 5475 5476 5478 5482 5486 5490 5494 5498 5501 5502 5505 5507 5509
5674 5664 5653 5647 5640 5633 5623 5615 5607 5596 5587 5577 5570 5563 5554 5543 5534 5524 5515 5507 5501 5496 5493 5490 5487 5485 5483 5481 5479 5477 5477 5477 5477 5479 5483 5487 5490 5494 5499 5502 5505 5506 5502 5501
5667 5659 5650 5644 5636 5627 5619 5611 5602 5593 5583 5575 5566 5558 5549 5539 5530 5522 5515 5509 5504 5500 5498 5495 5491 5490 5488 5485 5483 5481 5480 5480 5481 5483 5486 5490 5493 5497 5501 5504 5506 5508 5506 5500
5663 5656 5648 5639 5630 5622 5614 5605 5596 5588 5579 5570 5563 5555 5545 5537 5529 5523 5518 5513 5508 5505 5502 5499 5497 5494 5492 5490 5488 5486 5485 5484 5485 5488 5491 5494 5498 5501 5505 5508 5509 5510 5509 5506
5655 5647 5640 5632 5625 5617 5608 5600 5592 5584 5575 5567 5559 5552 5544 5538 5532 5527 5523 5518 5514 5511 5508 5505 5503 5500 5497 5495 5494 5493 5493 5493 5491 5496 5499 5501 5504 5507 5510 5513 5514 5514 5513 5511
5654 5645 5637 5628 5620 5612 5605 5597 5589 5581 5572 5564 5557 5550 5544 5538 5533 5530 5527 5524 5523 5520 5516 5512 5509 5506 5505 5502 5500 5501 5502 5503 5503 5505 5507 5508 5510 5513 5515 5517 5518 5518 5515 5512
5652 5644 5635 5626 5618 5610 5601 5595 5587 5579 5571 5562 5555 5549 5543 5539 5536 5533 5531 5530 5529 5527 5522 5520 5515 5515 5514 5511 5508 5511 5512 5513 5512 5512 5514 5513 5516 5519 5521 5522 5522 5522 5521 5520
5649 5642 5633 5624 5616 5607 5600 5593 5586 5579 5570 5561 5554 5550 5546 5543 5540 5538 5537 5536 5533 5529 5527 5527 5527 5525 5522 5519 5516 5519 5521 5520 5520 5520 5521 5522 5523 5524 5525 5527 5527 5527 5528 5529
5645 5637 5628 5621 5613 5605 5598 5591 5585 5578 5570 5561 5555 5551 5547 5545 5543 5542 5541 5542 5541 5538 5537 5538 5539 5535 5532 5526 5526 5529 5530 5529 5529 5529 5529 5530 5530 5531 5532 5533 5534 5535 5537 5539
5639 5631 5624 5617 5610 5603 5597 5592 5585 5577 5569 5562 5557 5553 5550 5548 5547 5546 5545 5544 5544 5542 5545 5548 5548 5542 5539 5538 5541 5541 5540 5540 5539 5538 5538 5539 5540 5541 5542 5543 5545 5547 5548 5551
5634 5627 5620 5614 5608 5601 5597 5591 5584 5576 5569 5563 5558 5554 5550 5547 5545 5545 5547 5548 5548 5548 5552 5556 5553 5551 5550 5554 5555 5554 5553 5552 5551 5550 5550 5551 5552 5554 5554 5556 5558 5559 5561 5562
5630 5623 5617 5612 5606 5601 5596 5591 5584 5576 5569 5563 5558 5554 5551 5549 5548 5547 5546 5549 5551 5553 5559 5561 5561 5562 5564 5568 5568 5567 5566 5565 5565 5565 5565 5566 5567 5568 5568 5570 5570 5571 5572 5573
5626 5619 5615 5608 5603 5599 5594 5590 5584 5577 5569 5563 5558 5554 5550 5547 5545 5547 5549 5551 5553 5557 5563 5567 5569 5570 5574 5576 5577 5577 5577 5577 5577 5577 5578 5579 5579 5579 5580 5580 5580 5580 5581 5581
5623 5617 5613 5606 5601 5597 5592 5586 5580 5574 5568 5561 5556 5552 5549 5547 5545 5546 5548 5551 5554 5556 5562 5567 5572 5575 5577 5579 5581 5582 5582 5584 5586 5586 5587 5587 5587 5587 5587 5587 5587 5587 5587 5588
5621 5618 5612 5606 5601 5593 5586 5581 5576 5570 5564 5556 5552 5548 5545 5543 5542 5542 5544 5546 5550 5553 5558 5563 5568 5572 5575 5577 5580 5582 5584 5586 5588 5590 5592 5593 5593 5593 5592 5592 5592 5592 5592 5591